Location: Foulognes
(49.1413°N, 0.8183°W)
Time: 18:19:00
(UTC+00:00)

STARLINK-38 - Pass Details

Date: 21 October 2019
Orbit: 548 x 551 km, 53.0° (Epoch: 22 November)

Event Time Altitude Azimuth Distance (km) Brightness Sun altitude
Rises 18:35:16 0° 281° (WNW) 2,719 8.9 -15.9°
Reaches altitude 10° 18:37:34 10° 287° (WNW) 1,826 7.5 -16.2°
Maximum altitude 18:41:35 49° 3° (N) 720 4.1 -16.9°
Enters shadow 18:43:10 31° 59° (ENE) 975 4.4 -17.2°
